Temp
46 39 36 43 45 44 44 41 40 43 48 44 45 46 51 53 50 49 49 50 46 49 46 51 51 50 50 50 50 50 48 47 46 44 43 42 43 44 45 47 50 50 50 50
41 37 46 48 46 44 41 40 42 45 47 45 45 47 54 51 49 49 50 46 47 46 48 49 48 48 48 48 48 48 48 47 47 45 43 43 43 44 45 47 49 50 50 50
38 44 48 47 43 43 41 40 41 41 44 44 43 45 49 51 50 51 49 48 47 47 47 47 47 47 46 46 46 48 47 47 46 46 44 44 45 44 45 45 46 48 50 49
42 47 45 43 43 45 39 46 46 43 38 34 40 35 43 46 47 48 47 46 45 46 46 47 47 45 46 46 46 47 47 47 46 45 44 44 43 43 44 44 45 47 49 49
39 41 42 42 44 49 43 46 43 41 36 33 34 32 42 43 44 47 48 48 46 47 47 47 47 48 47 46 45 45 46 46 45 45 44 43 43 43 44 44 45 46 47 48
39 44 43 43 42 45 46 42 39 35 32 20 34 35 37 42 44 44 46 47 48 46 46 47 48 47 45 44 44 44 44 44 45 44 44 43 43 43 43 43 43 43 45 46
37 38 41 44 40 43 41 36 21 21 15 23 32 31 38 44 45 45 48 47 47 46 45 45 44 44 43 43 42 43 44 43 44 43 43 44 44 44 44 44 43 43 43 44
30 25 38 44 41 39 37 37 27 22 20 26 32 30 40 44 45 47 47 48 47 45 45 45 44 43 43 44 43 43 43 43 43 43 43 44 45 44 44 44 43 43 43 44
29 32 38 39 41 42 37 32 39 27 18 24 31 36 43 43 43 44 45 46 46 45 45 45 44 44 43 43 43 43 43 43 43 43 42 43 43 44 44 44 44 43 44 46
39 29 32 37 41 40 37 41 31 27 19 21 25 31 37 39 41 42 42 43 45 45 45 45 45 44 44 43 43 43 43 43 43 43 42 43 43 44 44 44 44 44 45 46
38 35 29 35 33 33 34 31 35 36 31 25 21 31 40 41 42 42 43 44 43 44 45 45 45 45 45 44 43 42 42 42 42 42 42 43 42 43 44 44 45 45 46 46
42 33 27 31 36 39 37 37 39 32 25 26 27 31 42 43 43 44 43 43 42 44 43 44 44 44 43 43 42 42 42 42 42 42 42 42 43 43 43 44 45 46 46 46
42 32 25 27 32 35 31 35 38 37 33 26 26 30 42 42 42 43 43 43 43 42 43 42 42 42 42 42 42 42 42 42 42 42 42 42 42 42 43 44 45 45 45 45
47 32 32 31 32 33 27 32 37 36 28 28 29 30 36 38 40 42 42 42 40 39 40 40 40 40 41 42 42 42 43 42 41 41 41 41 41 43 43 44 44 45 45 45
41 29 29 29 32 34 33 34 36 31 35 34 33 30 40 41 40 39 43 43 41 33 34 37 37 37 38 39 40 42 42 42 41 41 40 41 41 43 43 43 44 44 45 46
40 26 28 26 29 32 30 33 36 37 29 24 26 29 42 44 42 40 42 41 40 40 37 34 36 36 36 33 39 41 39 40 41 41 40 41 41 42 42 43 43 44 46 47
39 29 26 26 26 29 30 29 32 35 32 37 31 41 41 39 42 40 41 41 40 40 40 39 38 37 36 37 38 38 40 41 40 40 39 40 40 41 41 42 42 43 45 46
34 31 29 23 26 21 33 35 37 36 39 38 39 42 44 44 41 42 41 41 40 40 40 39 38 38 37 36 35 37 39 39 39 39 39 40 40 39 39 40 41 43 45 44
41 34 23 21 19 28 31 33 33 35 38 42 44 43 41 39 39 37 40 41 40 40 39 38 38 37 36 35 35 37 37 37 38 38 38 39 40 39 38 39 40 43 43 43
38 40 31 18 19 18 32 37 40 41 31 41 46 41 39 41 35 34 40 40 38 39 38 37 37 36 35 34 35 35 34 36 36 37 38 38 39 39 38 38 38 39 40 39
29 29 28 21 12 25 35 37 40 29 35 41 45 41 41 42 40 40 39 38 38 37 37 36 35 33 33 33 34 33 32 32 33 35 36 37 38 37 39 39 38 38 37 37
28 26 25 21 12 21 37 36 36 41 39 39 41 43 42 38 40 39 38 36 36 35 35 34 33 32 32 32 33 32 31 31 31 32 33 33 33 36 36 36 36 35 36 35
28 33 29 31 30 37 41 39 42 42 40 38 38 41 40 39 39 38 36 35 34 34 33 33 31 30 28 28 31 31 29 30 31 32 32 32 32 33 33 35 34 34 34 34
30 33 29 33 35 35 39 39 41 42 40 39 40 42 42 39 39 37 36 34 33 32 31 28 26 27 27 25 27 30 30 31 32 32 32 32 32 33 33 33 33 34 34 34
30 34 27 27 31 34 36 37 40 38 39 40 40 43 42 40 38 37 34 32 31 31 26 23 23 23 22 21 23 20 30 32 32 32 32 32 32 33 33 32 34 34 35 35
29 31 34 30 35 36 38 38 38 37 37 38 37 35 35 39 35 34 32 31 30 27 24 22 21 20 20 18 19 20 29 31 32 32 32 32 33 33 32 32 33 36 37 38
MSLP
1015.18 1015.63 1015.12 1014.13 1014.24 1014.06 1013.96 1013.76 1013.40 1012.87 1012.85 1013.12 1012.80 1012.29 1011.29 1010.89 1010.97 1010.85 1011.19 1011.39 1011.70 1012.08 1012.55 1012.86 1013.30 1013.87 1014.53 1015.44 1016.13 1016.47 1016.74 1016.93 1017.23 1017.98 1018.58 1018.81 1018.84 1018.81 1018.61 1018.39 1018.71 1018.22 1018.16 1018.18
1015.73 1015.04 1014.09 1014.40 1014.66 1014.41 1014.23 1014.00 1013.73 1013.30 1013.17 1013.31 1012.90 1011.66 1010.64 1010.40 1010.46 1010.60 1010.66 1011.49 1012.04 1012.59 1013.16 1013.70 1014.24 1014.49 1014.86 1015.63 1016.38 1016.79 1017.10 1017.22 1017.45 1017.77 1018.10 1018.40 1018.54 1018.53 1018.57 1018.32 1018.44 1018.53 1018.27 1018.32
1015.02 1014.01 1013.66 1014.21 1014.43 1014.69 1014.24 1014.16 1013.98 1013.82 1013.70 1013.68 1013.57 1011.83 1010.50 1010.00 1010.33 1010.77 1011.08 1011.78 1012.51 1012.83 1013.55 1014.20 1014.68 1015.05 1015.48 1015.82 1016.25 1016.77 1017.18 1017.49 1017.58 1017.75 1018.13 1018.45 1018.82 1018.76 1018.58 1018.59 1018.39 1018.56 1018.38 1018.28
1014.75 1013.66 1013.67 1013.87 1013.92 1014.05 1014.32 1013.76 1014.13 1014.57 1014.82 1015.13 1014.39 1013.22 1011.09 1010.35 1010.45 1011.23 1011.82 1012.43 1012.95 1013.55 1013.88 1014.36 1014.88 1015.46 1015.65 1016.01 1016.54 1016.73 1017.10 1017.45 1017.75 1017.86 1018.11 1018.48 1018.64 1019.06 1018.77 1018.49 1018.48 1018.52 1018.39 1018.23
1013.75 1013.60 1013.57 1013.65 1013.23 1013.53 1013.92 1014.03 1014.74 1015.39 1016.10 1016.22 1015.50 1015.05 1011.48 1010.79 1010.80 1011.12 1011.86 1012.53 1013.20 1013.74 1014.25 1014.77 1015.24 1015.50 1015.71 1015.90 1016.36 1016.69 1017.21 1017.55 1017.77 1017.88 1017.95 1018.37 1018.49 1018.53 1018.45 1018.76 1018.49 1018.60 1018.53 1018.31
1013.97 1013.71 1013.55 1013.32 1013.55 1013.58 1014.17 1015.03 1015.99 1017.14 1017.71 1017.69 1015.83 1015.15 1012.61 1011.29 1010.83 1011.15 1011.62 1012.43 1013.06 1013.80 1014.25 1014.85 1015.38 1015.90 1016.44 1016.59 1016.73 1016.98 1017.40 1017.75 1017.83 1017.86 1018.03 1018.23 1018.61 1018.45 1018.61 1018.64 1018.84 1018.71 1018.73 1018.57
1014.35 1014.22 1013.78 1013.59 1014.02 1014.14 1014.41 1015.64 1017.79 1018.89 1019.30 1017.81 1016.27 1015.63 1012.31 1011.24 1010.93 1011.10 1011.75 1012.34 1013.04 1013.72 1014.38 1014.97 1015.62 1016.04 1016.49 1017.10 1017.20 1017.35 1017.40 1017.80 1017.90 1017.92 1018.08 1018.07 1018.49 1018.34 1018.43 1018.60 1018.76 1018.93 1018.82 1018.67
1013.95 1014.96 1014.01 1013.59 1013.58 1013.70 1014.60 1015.19 1016.45 1017.61 1018.75 1017.77 1016.68 1014.88 1011.89 1011.31 1011.13 1011.22 1011.52 1012.21 1013.03 1013.73 1014.27 1014.87 1015.47 1015.94 1016.29 1016.76 1017.06 1017.41 1017.48 1017.66 1017.89 1018.00 1018.03 1018.15 1018.20 1018.36 1018.30 1018.51 1018.42 1018.67 1018.82 1018.65
1013.14 1013.94 1014.12 1013.94 1013.72 1013.85 1014.73 1015.14 1015.20 1016.56 1018.59 1017.46 1015.82 1013.90 1012.18 1011.80 1011.72 1011.79 1012.06 1012.62 1013.18 1013.65 1014.07 1014.56 1015.29 1015.72 1016.12 1016.39 1016.77 1017.12 1017.38 1017.65 1017.84 1017.82 1018.03 1018.14 1018.16 1018.30 1018.30 1018.43 1018.45 1018.35 1018.53 1018.57
1011.78 1013.57 1014.61 1014.49 1014.15 1014.20 1014.10 1014.24 1015.15 1016.26 1017.46 1017.11 1015.43 1014.24 1012.40 1012.21 1012.28 1012.34 1012.60 1012.78 1013.10 1013.64 1014.12 1014.56 1015.01 1015.29 1015.70 1015.93 1016.31 1016.87 1017.26 1017.42 1017.51 1017.58 1017.86 1018.01 1018.15 1018.23 1018.30 1018.37 1018.54 1018.35 1018.27 1018.35
1011.70 1012.53 1015.09 1014.86 1014.30 1013.84 1014.50 1014.15 1014.31 1014.71 1015.46 1015.56 1015.27 1013.20 1011.73 1011.89 1012.27 1012.59 1012.84 1012.97 1013.30 1013.72 1014.22 1014.61 1014.87 1015.15 1015.43 1015.73 1016.21 1016.65 1017.12 1017.37 1017.56 1017.62 1017.80 1017.89 1018.06 1018.28 1018.26 1018.20 1018.24 1018.29 1018.24 1018.25
1011.34 1013.04 1014.19 1014.32 1014.11 1014.09 1013.78 1013.42 1013.17 1013.62 1015.06 1015.17 1014.71 1013.03 1011.61 1012.00 1012.45 1012.73 1013.08 1013.22 1013.54 1014.00 1014.34 1014.61 1014.83 1015.03 1015.23 1015.66 1016.00 1016.42 1016.89 1017.16 1017.30 1017.38 1017.70 1017.74 1017.89 1018.11 1018.34 1018.30 1018.14 1018.15 1018.13 1018.22
1010.72 1012.23 1013.88 1014.72 1014.99 1014.46 1014.04 1013.35 1012.77 1012.79 1013.32 1014.10 1014.46 1013.31 1012.37 1012.70 1012.96 1013.01 1013.28 1013.57 1014.11 1014.44 1014.57 1014.92 1015.17 1015.22 1015.41 1015.52 1015.80 1016.10 1016.48 1016.71 1016.73 1017.01 1017.33 1017.53 1017.64 1017.95 1018.34 1018.21 1018.15 1018.11 1018.03 1018.09
1009.33 1010.88 1011.30 1011.67 1011.60 1012.26 1013.47 1012.84 1012.65 1012.53 1013.09 1013.47 1013.04 1013.15 1012.98 1013.03 1013.11 1013.18 1013.20 1013.61 1014.31 1014.90 1015.12 1015.30 1015.48 1015.68 1015.58 1015.49 1015.58 1016.00 1016.28 1016.50 1016.63 1016.93 1017.20 1017.31 1017.42 1017.54 1017.85 1018.15 1018.13 1018.21 1018.05 1018.10
1009.67 1010.61 1011.43 1011.64 1011.62 1011.49 1011.43 1011.46 1011.88 1011.89 1011.96 1012.25 1012.36 1012.43 1011.83 1011.97 1012.45 1012.98 1013.22 1013.73 1014.49 1015.03 1015.42 1015.53 1015.79 1015.89 1015.78 1015.71 1015.72 1015.68 1015.78 1016.04 1016.31 1016.77 1017.01 1017.08 1017.06 1017.39 1017.48 1017.86 1017.93 1018.09 1018.06 1018.08
1009.23 1010.36 1010.78 1012.26 1012.17 1011.81 1011.61 1011.13 1010.83 1010.76 1011.04 1011.44 1011.53 1011.46 1010.69 1011.29 1012.43 1013.11 1013.56 1014.21 1014.80 1015.20 1015.55 1015.68 1015.81 1015.89 1015.95 1015.85 1015.90 1015.65 1015.59 1015.64 1015.93 1016.21 1016.46 1016.75 1017.04 1017.20 1017.42 1017.49 1017.51 1017.90 1017.96 1017.98
1008.71 1010.20 1011.15 1012.50 1012.57 1012.25 1011.59 1009.63 1010.30 1010.38 1010.30 1010.13 1010.60 1010.19 1010.53 1011.53 1012.25 1012.85 1013.57 1014.14 1014.82 1015.27 1015.60 1015.92 1016.10 1016.14 1016.03 1015.94 1015.78 1015.47 1015.26 1015.37 1015.84 1016.22 1016.52 1016.70 1016.90 1017.16 1017.30 1017.61 1017.65 1017.67 1017.66 1017.77
1007.95 1009.84 1011.58 1012.79 1012.71 1012.26 1009.31 1008.75 1008.49 1009.00 1008.94 1009.21 1009.46 1009.63 1010.03 1010.79 1012.05 1012.91 1013.59 1014.26 1015.05 1015.51 1015.93 1016.30 1016.50 1016.52 1016.40 1016.11 1015.80 1015.53 1015.24 1015.27 1015.57 1015.84 1016.22 1016.62 1016.94 1017.30 1017.25 1017.44 1017.72 1017.54 1017.68 1017.79
1007.79 1009.63 1011.55 1012.65 1012.39 1011.01 1009.33 1008.96 1008.46 1008.10 1008.13 1008.12 1008.63 1009.57 1010.45 1011.47 1012.59 1013.83 1014.11 1014.55 1015.18 1015.69 1016.17 1016.56 1016.78 1016.82 1016.71 1016.40 1016.02 1015.71 1015.62 1015.67 1015.86 1016.09 1016.24 1016.31 1016.54 1016.86 1017.27 1017.32 1017.39 1017.49 1017.55 1017.65
1007.83 1008.08 1009.10 1012.03 1011.81 1010.20 1007.93 1007.02 1007.06 1007.15 1007.38 1006.96 1007.91 1009.13 1010.38 1011.35 1012.96 1013.75 1014.45 1015.02 1015.66 1016.03 1016.38 1016.66 1016.86 1017.03 1016.93 1016.72 1016.37 1016.18 1016.32 1016.30 1016.41 1016.40 1016.41 1016.39 1016.53 1016.69 1017.14 1017.25 1017.41 1017.33 1017.59 1017.56
1007.94 1008.61 1009.53 1009.96 1010.23 1008.70 1006.88 1006.76 1006.96 1007.14 1006.43 1005.92 1006.98 1008.59 1009.94 1010.73 1011.17 1012.75 1014.41 1015.41 1015.84 1016.35 1016.77 1017.14 1017.33 1017.40 1017.48 1017.20 1016.82 1016.89 1017.04 1017.18 1016.97 1016.67 1016.63 1016.50 1016.58 1016.74 1016.98 1017.05 1017.39 1017.36 1017.75 1017.54
1006.20 1007.42 1008.88 1009.45 1009.01 1007.96 1005.69 1006.39 1006.38 1005.70 1005.91 1006.14 1007.06 1008.07 1009.63 1010.79 1011.82 1013.27 1014.71 1015.67 1016.32 1016.81 1017.27 1017.51 1017.59 1017.83 1017.86 1017.54 1017.25 1017.34 1017.38 1017.43 1017.05 1016.97 1016.88 1016.93 1016.82 1016.82 1017.02 1017.18 1017.46 1017.35 1017.86 1017.72
1005.59 1004.72 1005.67 1006.43 1005.60 1004.96 1004.75 1004.35 1004.74 1004.99 1005.77 1006.79 1007.34 1008.35 1009.35 1010.83 1012.27 1013.82 1015.12 1016.16 1016.84 1017.30 1017.78 1018.08 1018.16 1018.42 1018.35 1018.09 1017.77 1017.67 1018.00 1017.60 1017.37 1017.22 1017.43 1017.43 1017.25 1017.18 1017.11 1017.40 1017.42 1017.64 1017.76 1017.82
1004.75 1004.65 1005.09 1005.46 1005.27 1004.77 1004.90 1005.00 1005.04 1005.37 1006.05 1006.69 1007.34 1008.40 1009.49 1011.08 1012.62 1014.22 1015.45 1016.53 1017.36 1018.14 1018.50 1018.83 1019.02 1018.94 1019.00 1018.88 1018.67 1018.58 1018.40 1018.03 1017.76 1017.77 1017.80 1017.64 1017.56 1017.57 1017.35 1017.28 1017.52 1017.66 1017.61 1017.73
1004.54 1004.85 1005.12 1005.56 1005.35 1005.39 1005.52 1005.37 1005.61 1006.30 1007.06 1007.56 1008.48 1008.99 1009.98 1011.34 1013.38 1014.60 1016.07 1017.17 1017.98 1018.58 1019.36 1019.57 1019.45 1019.55 1019.65 1019.34 1019.14 1019.05 1018.66 1018.41 1018.29 1018.11 1017.92 1017.77 1017.69 1017.76 1017.69 1017.34 1017.45 1017.49 1017.38 1017.55
1003.90 1003.73 1003.95 1004.02 1004.39 1004.60 1005.16 1005.68 1006.22 1007.10 1007.74 1008.20 1008.83 1010.44 1011.41 1012.03 1013.53 1015.11 1016.65 1017.72 1018.59 1019.23 1019.51 1019.69 1019.91 1020.17 1020.15 1019.85 1019.83 1019.61 1019.10 1018.82 1018.60 1018.38 1018.15 1017.90 1017.73 1017.72 1017.63 1017.45 1017.40 1017.25 1017.09 1016.98
Wind_Speed
3 4 11 19 8 0 5 2 2 2 2 2 7 10 15 10 9 10 8 8 3 6 3 6 7 9 10 8 8 7 8 6 5 3 3 2 2 0 1 1 3 4 3 5
4 10 11 6 6 6 2 1 4 3 0 2 6 15 13 7 5 5 6 7 7 6 6 7 7 6 6 8 7 7 6 6 4 3 2 2 2 1 1 0 2 3 3 4
8 5 9 9 6 7 4 5 3 3 1 1 5 10 5 1 3 6 8 5 4 8 9 7 7 7 7 8 8 7 7 6 4 4 3 3 3 2 2 1 1 2 2 3
5 4 5 6 7 8 5 7 5 3 4 4 2 6 5 4 1 4 4 5 6 6 5 5 7 6 8 7 6 7 7 6 4 5 3 3 3 2 2 2 1 2 2 3
9 5 6 5 5 7 5 3 7 4 4 3 2 2 10 2 1 3 5 6 6 7 7 7 7 7 6 7 7 7 7 6 5 5 5 4 3 2 2 0 0 2 2 3
3 1 2 5 3 3 9 7 9 6 4 2 7 7 8 3 2 1 2 4 7 7 7 7 6 6 5 4 6 6 7 4 5 4 4 5 6 5 3 2 0 1 1 3
2 2 1 3 6 4 5 6 4 4 4 7 2 4 10 3 1 2 5 7 7 7 7 7 8 7 7 7 6 6 7 6 5 5 4 5 5 5 5 4 2 0 1 2
9 4 8 5 5 8 6 6 8 9 5 4 1 8 7 2 3 3 1 6 5 6 6 7 8 8 8 8 7 7 7 6 6 5 5 4 5 3 3 3 3 2 1 3
7 5 3 2 1 4 7 6 4 8 2 4 5 6 5 2 3 3 4 5 6 6 8 9 7 8 8 8 8 8 7 6 6 6 5 4 4 4 4 4 3 3 2 3
5 5 1 2 1 1 3 5 4 3 4 4 4 5 6 6 5 3 3 2 4 5 6 7 7 8 7 7 6 7 7 7 7 7 5 4 5 4 4 4 3 3 2 2
3 3 1 3 7 8 4 3 3 5 5 7 3 7 5 8 8 8 5 3 3 4 5 6 6 7 7 6 7 7 7 7 6 6 5 5 4 4 4 4 4 3 2 2
6 4 5 4 2 3 2 6 7 7 6 2 3 7 1 8 8 7 5 3 4 5 4 2 5 6 6 7 7 7 7 7 7 6 5 6 5 4 4 4 4 4 3 1
15 6 5 3 5 3 5 5 4 4 3 8 8 6 2 5 6 5 6 5 4 4 5 4 4 2 5 5 6 7 7 8 7 7 7 6 6 5 5 5 4 4 3 3
16 3 6 10 4 10 8 8 8 5 4 6 7 6 6 8 9 6 4 6 6 4 4 3 4 4 3 4 6 6 6 6 6 6 6 6 6 6 6 5 4 4 4 3
13 8 4 3 3 3 5 13 17 12 7 12 8 10 14 17 12 9 7 6 5 4 5 4 3 4 4 5 4 5 7 7 6 7 6 6 6 5 5 5 4 4 3 4
5 3 5 0 2 0 4 7 20 18 4 4 4 6 4 8 6 6 7 7 5 4 4 3 4 4 4 4 5 5 5 6 6 8 8 6 5 5 5 5 6 5 4 4
13 6 3 4 2 3 6 12 14 10 5 13 10 6 6 6 10 9 8 7 6 5 4 4 4 3 4 5 5 6 5 5 7 6 5 5 5 5 5 5 4 5 5 4
9 6 4 3 3 3 6 1 10 10 13 6 3 8 11 10 5 6 5 7 7 6 4 4 4 5 6 5 5 5 3 5 6 6 6 6 5 5 5 5 5 4 3 4
14 9 5 6 4 5 3 6 10 10 9 16 13 8 7 12 7 5 4 4 6 6 5 3 3 2 4 5 6 4 5 4 5 4 5 5 6 6 5 5 5 4 3 3
5 6 5 3 7 11 6 5 7 5 4 13 18 12 18 13 8 5 7 6 6 6 5 5 4 3 5 6 5 6 6 5 3 2 5 5 5 5 6 6 5 3 2 3
8 4 9 5 3 8 7 7 6 7 8 7 16 17 21 13 4 10 10 6 5 5 7 5 5 6 5 5 5 7 6 6 5 4 3 2 4 4 4 4 3 2 3 4
10 11 6 3 4 9 8 8 11 6 1 6 9 16 15 11 17 17 12 10 8 8 6 5 6 6 5 5 4 6 7 5 4 4 3 2 2 1 2 4 3 3 3 4
5 8 9 9 7 0 10 3 4 5 7 6 8 13 16 20 17 15 12 9 7 7 6 3 5 6 5 6 6 7 6 6 5 5 5 4 2 1 2 2 2 1 2 2
1 2 4 6 4 3 8 2 5 4 5 7 10 19 21 19 17 14 11 10 7 5 5 2 1 6 7 5 5 5 5 6 6 5 5 4 3 1 1 2 1 1 3 2
5 7 7 1 2 5 2 2 6 6 10 14 12 17 20 20 16 14 11 9 7 6 2 3 3 5 4 4 5 4 6 6 6 5 4 3 2 3 3 1 2 3 3 2
5 9 9 6 10 5 8 7 8 11 12 16 20 11 7 17 16 14 10 6 6 6 3 2 4 4 2 3 4 5 6 6 6 4 4 3 3 2 2 1 3 7 9 7
Wind_Direction
208 137 202 207 191 35 145 171 211 229 188 196 234 268 280 279 252 264 246 243 160 121 92 105 101 106 105 101 115 125 127 137 126 110 110 82 122 41 69 48 324 39 26 351
96 234 217 162 196 225 300 112 255 289 243 210 314 288 273 284 266 283 243 165 147 116 101 98 109 110 120 132 127 130 136 145 144 128 156 147 154 180 177 155 318 8 24 342
173 225 175 173 174 195 221 190 203 207 333 244 321 295 328 26 90 36 50 102 104 140 137 132 130 133 130 138 147 148 151 155 154 142 108 82 64 39 55 11 15 325 354 341
245 245 155 168 193 150 192 198 167 145 80 228 11 274 308 331 49 72 107 134 155 154 133 138 135 146 154 152 145 144 149 155 159 151 126 141 148 167 207 173 234 319 348 342
230 192 162 170 190 164 210 142 156 118 104 44 287 73 271 318 170 204 187 188 188 182 165 161 157 158 165 145 157 151 150 160 159 164 160 155 145 162 150 131 12 346 341 339
187 286 206 178 104 168 147 80 49 53 78 15 223 156 280 226 202 175 175 194 189 180 174 161 151 138 135 139 142 145 153 172 173 168 170 164 165 156 142 131 359 7 335 318
130 215 282 169 86 31 89 94 22 4 8 216 332 132 245 249 253 201 201 201 196 179 166 160 153 156 152 165 164 163 166 184 189 179 182 173 177 166 162 158 163 176 357 308
157 235 175 188 193 173 177 165 158 193 190 212 28 224 249 225 336 70 35 169 164 171 175 176 174 170 171 175 176 183 181 188 192 195 199 191 173 172 161 167 154 160 228 261
145 215 325 63 91 135 183 199 166 104 33 69 209 275 293 110 59 64 113 150 190 187 185 184 180 181 185 181 189 190 188 201 197 197 204 202 182 170 171 165 150 150 227 265
200 106 336 347 117 27 163 167 85 0 134 230 283 275 239 201 181 146 134 186 223 206 200 195 193 193 202 191 187 191 194 201 197 193 200 200 198 186 174 163 168 177 214 261
155 76 248 144 211 175 152 192 194 125 154 164 160 252 219 187 170 160 164 129 59 193 215 212 212 211 202 192 187 194 197 197 201 194 199 201 203 203 187 182 173 196 202 244
176 112 174 181 279 331 303 204 182 147 228 207 148 265 121 149 152 148 160 104 64 68 40 286 224 213 196 200 192 197 198 199 200 195 195 203 195 192 203 207 191 203 201 205
163 191 114 94 350 341 228 215 224 115 89 191 145 248 79 120 141 176 140 107 86 65 45 35 46 226 229 223 211 201 199 205 193 185 189 198 201 194 222 219 198 200 205 202
152 162 201 195 167 143 192 197 205 160 173 155 210 165 197 193 183 197 152 125 111 82 52 34 31 7 330 241 220 224 223 204 189 186 190 195 201 199 202 222 198 206 215 217
157 195 141 349 328 126 171 189 192 203 170 194 188 187 199 195 190 187 173 133 109 56 51 40 5 348 341 339 303 233 213 190 184 189 193 207 196 210 195 211 185 188 215 226
199 177 122 92 344 333 207 222 206 209 191 67 103 251 210 166 139 158 161 144 124 97 73 34 27 359 331 303 298 290 244 204 177 185 194 192 195 198 205 203 177 179 215 229
177 135 128 182 44 2 294 206 192 195 197 169 182 206 140 143 179 171 163 148 139 112 75 41 14 352 323 310 303 283 261 182 181 189 195 188 191 198 198 212 193 192 195 212
130 97 34 129 101 183 250 275 185 180 206 190 121 162 168 163 106 106 124 141 137 126 92 44 14 2 348 331 323 305 262 175 166 178 181 181 182 206 197 186 222 211 201 217
181 153 135 161 191 310 236 191 157 168 229 200 200 151 129 117 81 40 123 119 134 123 107 85 54 25 351 355 339 18 50 108 143 180 201 189 181 184 198 192 208 218 201 198
143 184 116 135 153 205 232 200 154 140 284 179 187 161 149 147 152 203 157 130 117 116 111 102 74 38 31 360 17 56 45 64 64 217 221 201 192 184 203 200 210 179 194 179
158 126 188 175 190 280 227 149 163 122 232 152 178 157 161 174 177 135 134 118 111 117 113 89 65 60 28 7 55 67 54 30 334 316 284 225 184 200 219 197 186 166 206 156
164 152 172 114 102 258 166 107 166 191 66 140 150 163 154 122 120 130 132 132 129 122 109 92 88 62 20 15 55 69 52 341 0 8 22 28 350 192 193 194 234 151 210 220
154 179 166 179 199 242 189 127 160 142 139 148 123 142 135 135 135 137 134 129 124 120 114 89 98 83 30 14 21 51 359 8 18 37 34 16 41 21 116 185 178 151 198 200
314 141 126 110 208 192 181 52 133 141 131 129 132 143 141 135 136 134 129 129 123 123 120 135 111 71 51 12 42 61 26 18 32 36 18 13 20 325 172 120 166 216 200 200
192 137 154 90 31 80 353 212 142 101 111 113 119 139 139 133 136 133 130 127 129 130 175 189 125 90 49 358 36 23 35 29 30 26 21 11 359 319 292 308 206 205 226 235
190 168 175 197 178 148 187 158 139 134 143 135 126 112 102 135 130 129 126 127 138 144 165 119 82 98 39 30 29 10 22 24 22 12 3 354 339 312 275 252 267 246 240 235